Torna al catalogo

STARLINK-11672

AttivoComunicazioniVLEO
NORAD 63665·PAYLOAD·🇺🇸 United States

Lanciato Apr 28, 2025 da Cape Canaveral Space Force Station

Loading…

Prossimi Passaggi (prossime 24 ore)

TLE

AggiornatoSource: CelesTrak SupGP

Epoca: Sep 14, 2026, 21:06 UTC

1 63665C 25085B   26257.87965278 -.00005688  00000+0 -44296-4 0  2574
2 63665  43.0007 217.6086 0001694 269.2032   8.5091 15.70779168    11

Traccia STARLINK-11672 in tempo reale con AllMySat

Download on the App Store